DW9029 Weather Reports


Display with metric or nautical units.
time (UTC)temp
F
wind
direction
speed
MPH
gust
MPH
rain 1hr
in
rain 24hr
in
rain mn
in
humidity
%
barometer
mb
20260903130404 103 28 3.0 7.0 0.00 0.00 0.00 31 1015.9
20260903124904 102 29 0.0 5.0 0.00 0.00 0.00 33 1015.9
20260903124404 101 342 0.0 3.0 0.00 0.00 0.00 33 1015.9
20260903123904 101 6 1.0 5.0 0.00 0.00 0.00 34 1016.0
20260903123404 101 23 2.0 6.0 0.00 0.00 0.00 34 1016.1
20260903120404 99 29 5.0 7.0 0.00 0.00 0.00 35 1016.4
20260903114904 98 5 1.0 5.0 0.00 0.00 0.00 38 1016.7
20260903114404 97 333 3.0 8.0 0.00 0.00 0.00 38 1016.8
20260903113904 97 75 3.0 7.0 0.00 0.00 0.00 39 1017.0
20260903113404 96 349 4.0 8.0 0.00 0.00 0.00 40 1017.0
20260903111903 95 19 5.0 9.0 0.00 0.00 0.00 41 1017.2
20260903111404 95 358 3.0 7.0 0.00 0.00 0.00 41 1017.3
20260903110904 94 53 3.0 8.0 0.00 0.00 0.00 42 1017.3
20260903110403 94 34 3.0 7.0 0.00 0.00 0.00 43 1017.4
20260903104404 91 354 1.0 3.0 0.00 0.00 0.00 47 1017.5
20260903103904 90 27 3.0 7.0 0.00 0.00 0.00 48 1017.6
20260903101404 89 13 4.0 6.0 0.00 0.00 0.00 48 1017.8
20260903100404 89 8 2.0 7.0 0.00 0.00 0.00 49 1017.9
20260903094404 87 30 2.0 7.0 0.00 0.00 0.00 51 1017.9
20260903093903 87 11 5.0 8.0 0.00 0.00 0.00 51 1017.8
20260903093404 87 351 5.0 8.0 0.00 0.00 0.00 51 1017.8
20260903091404 85 28 3.0 6.0 0.00 0.00 0.00 53 1017.7
20260903090904 85 64 2.0 6.0 0.00 0.00 0.00 54 1017.6
20260903084905 83 34 3.0 7.0 0.00 0.00 0.00 55 1017.6
20260903084405 83 3 3.0 7.0 0.00 0.00 0.00 56 1017.6
20260903083405 82 34 2.0 8.0 0.00 0.00 0.00 57 1017.6
20260903081905 81 342 3.0 8.0 0.00 0.00 0.00 57 1017.6
20260903081405 80 357 2.0 6.0 0.00 0.00 0.00 58 1017.6
20260903080905 80 11 3.0 7.0 0.00 0.00 0.00 57 1017.6
20260903080405 80 0 3.0 7.0 0.00 0.00 0.00 58 1017.6
20260903074905 80 10 2.0 7.0 0.00 0.00 0.00 58 1017.6
20260903074405 79 357 3.0 7.0 0.00 0.00 0.00 58 1017.6
20260903073905 79 5 3.0 9.0 0.00 0.00 0.00 58 1017.6
20260903073405 79 13 3.0 10.0 0.00 0.00 0.00 58 1017.6
20260903071905 79 11 1.0 7.0 0.00 0.00 0.00 59 1017.6
20260903070405 78 354 4.0 8.0 0.00 0.00 0.00 60 1017.3
20260903064905 77 348 2.0 3.0 0.00 0.00 0.00 63 1017.3
20260903063405 76 316 0.0 0.0 0.00 0.00 0.00 65 1017.2
20260903061905 76 320 0.0 0.0 0.00 0.00 0.00 65 1017.1
20260903061405 76 320 0.0 0.0 0.00 0.00 0.00 65 1017.0
20260903060905 76 320 0.0 0.0 0.00 0.00 0.00 66 1016.9
20260903054905 76 2 0.0 3.0 0.00 0.00 0.00 66 1016.6
20260903054405 76 344 0.0 3.0 0.00 0.00 0.00 66 1016.5
20260903053905 76 342 0.0 3.0 0.00 0.00 0.00 66 1016.5
20260903053405 76 338 0.0 3.0 0.00 0.00 0.00 66 1016.5
20260903051905 76 356 1.0 5.0 0.00 0.00 0.00 67 1016.3
20260903050905 76 5 1.0 3.0 0.00 0.00 0.00 67 1016.2
20260903050405 76 7 2.0 6.0 0.00 0.00 0.00 68 1016.2
20260903044905 76 330 0.0 0.0 0.00 0.00 0.00 67 1016.1
20260903044405 76 325 0.0 0.0 0.00 0.00 0.00 67 1016.1
20260903043905 75 329 0.0 0.0 0.00 0.00 0.00 69 1016.1
20260903043405 75 309 0.0 0.0 0.00 0.00 0.00 71 1016.2
20260903041906 75 309 0.0 0.0 0.00 0.00 0.00 77 1016.2
20260903041405 75 309 0.0 0.0 0.00 0.00 0.00 77 1016.3
20260903040905 75 309 0.0 0.0 0.00 0.00 0.00 77 1016.3
20260903040405 75 309 0.0 0.0 0.00 0.00 0.00 77 1016.3
20260903034404 76 309 0.0 0.0 0.00 0.00 0.00 75 1016.3
20260903033905 76 309 0.0 0.0 0.00 0.00 0.00 76 1016.4
20260903033405 76 309 0.0 0.0 0.00 0.00 0.00 76 1016.4
20260903031404 76 309 0.0 0.0 0.00 0.00 0.00 75 1016.3
20260903030405 76 309 0.0 0.0 0.00 0.00 0.00 75 1016.3
20260903024904 76 277 0.0 0.0 0.00 0.00 0.00 75 1016.3
20260903024405 76 277 0.0 0.0 0.00 0.00 0.00 75 1016.2
20260903023905 76 277 0.0 0.0 0.00 0.00 0.00 75 1016.2
20260903023405 76 277 0.0 0.0 0.00 0.00 0.00 76 1016.2
20260903021905 77 277 0.0 0.0 0.00 0.00 0.00 74 1016.2
20260903021405 77 277 0.0 0.0 0.00 0.00 0.00 73 1016.2
20260903020905 77 277 0.0 0.0 0.00 0.00 0.00 72 1016.2
20260903020405 77 277 0.0 0.0 0.00 0.00 0.00 72 1016.2
20260903014905 78 277 0.0 0.0 0.00 0.00 0.00 70 1016.1
20260903014405 79 277 0.0 0.0 0.00 0.00 0.00 67 1015.9
20260903013405 79 277 0.0 0.0 0.00 0.00 0.00 67 1015.9
20260903011905 79 277 0.0 0.0 0.00 0.00 0.00 67 1016.0
20260903010404 79 277 0.0 0.0 0.00 0.00 0.00 69 1016.0
20260903004905 79 286 0.0 0.0 0.00 0.00 0.00 66 1016.1
20260903004405 80 286 0.0 0.0 0.00 0.00 0.00 65 1016.0
20260903003905 80 286 0.0 0.0 0.00 0.00 0.00 65 1015.9
20260903001905 80 285 0.0 0.0 0.00 0.00 0.00 67 1016.0
20260903001405 80 285 0.0 0.0 0.00 0.00 0.00 67 1016.0
20260903000905 80 285 0.0 0.0 0.00 0.00 0.00 67 1016.0
20260903000405 80 285 0.0 0.0 0.00 0.00 0.00 66 1016.1
20260902234906 81 285 0.0 0.0 0.00 0.00 0.00 65 1016.0
20260902234405 81 285 0.0 0.0 0.00 0.00 0.00 65 1016.0
20260902233905 82 285 0.0 0.0 0.00 0.00 0.00 64 1016.0
20260902233405 82 285 0.0 0.0 0.00 0.00 0.00 62 1016.0
20260902231905 84 286 0.0 0.0 0.00 0.00 0.00 57 1016.0
20260902231405 85 286 0.0 0.0 0.00 0.00 0.00 56 1015.9
20260902230905 85 286 0.0 0.0 0.00 0.00 0.00 55 1015.9
20260902230405 86 286 0.0 0.0 0.00 0.00 0.00 54 1015.9
20260902224405 86 286 0.0 0.0 0.00 0.00 0.00 54 1015.9
20260902223904 86 286 0.0 0.0 0.00 0.00 0.00 54 1015.8
20260902223405 86 282 0.0 3.0 0.00 0.00 0.00 55 1015.9
20260902221905 86 285 0.0 5.0 0.00 0.00 0.00 54 1015.9
20260902221405 86 269 0.0 6.0 0.00 0.00 0.00 55 1015.9
20260902220905 86 275 0.0 3.0 0.00 0.00 0.00 55 1015.9
20260902220405 86 271 1.0 3.0 0.00 0.00 0.00 56 1015.9
20260902214405 87 286 0.0 0.0 0.00 0.00 0.00 54 1015.8
20260902213905 87 274 0.0 0.0 0.00 0.00 0.00 54 1015.7
20260902213405 87 250 0.0 0.0 0.00 0.00 0.00 55 1015.7
20260902211405 87 221 0.0 0.0 0.00 0.00 0.00 54 1015.6
20260902210405 87 232 0.0 5.0 0.00 0.00 0.00 54 1015.5
20260902204905 88 236 0.0 0.0 0.00 0.00 0.00 54 1015.4
20260902204405 88 243 0.0 0.0 0.00 0.00 0.00 54 1015.4
20260902203405 88 259 1.0 6.0 0.00 0.00 0.00 54 1015.3
20260902201404 89 240 1.0 6.0 0.00 0.00 0.00 52 1015.1
20260902200905 89 235 0.0 10.0 0.00 0.00 0.00 52 1015.1
20260902194904 90 232 1.0 6.0 0.00 0.00 0.00 49 1014.7
20260902194406 91 216 0.0 5.0 0.00 0.00 0.00 49 1014.5
20260902193905 91 242 0.0 5.0 0.00 0.00 0.00 48 1014.5
20260902193405 91 231 2.0 7.0 0.00 0.00 0.00 48 1014.4
20260902191405 92 209 1.0 5.0 0.00 0.00 0.00 48 1014.2
20260902190905 92 215 0.0 3.0 0.00 0.00 0.00 48 1014.1
20260902190405 93 234 0.0 8.0 0.00 0.00 0.00 47 1014.1
20260902184905 94 220 1.0 8.0 0.00 0.00 0.00 46 1014.0
20260902184405 94 214 2.0 6.0 0.00 0.00 0.00 46 1014.0
20260902183905 94 205 5.0 9.0 0.00 0.00 0.00 45 1014.1
20260902183404 94 206 2.0 8.0 0.00 0.00 0.00 46 1014.1
20260902181905 96 206 3.0 8.0 0.00 0.00 0.00 47 1014.1
20260902181405 97 192 2.0 8.0 0.00 0.00 0.00 41 1014.1
20260902180905 97 183 1.0 3.0 0.00 0.00 0.00 38 1014.0
20260902180405 97 174 0.0 7.0 0.00 0.00 0.00 37 1014.0
20260902174905 98 196 0.0 3.0 0.00 0.00 0.00 39 1014.1
20260902174405 99 183 0.0 3.0 0.00 0.00 0.00 39 1014.1
20260902173905 99 174 0.0 3.0 0.00 0.00 0.00 39 1014.0
20260902173405 99 177 1.0 3.0 0.00 0.00 0.00 38 1014.0
20260902171905 99 167 1.0 3.0 0.00 0.00 0.00 38 1013.9
20260902171405 99 199 3.0 6.0 0.00 0.00 0.00 37 1013.9
20260902170405 100 183 0.0 6.0 0.00 0.00 0.00 35 1014.0
20260902164905 100 226 1.0 6.0 0.00 0.00 0.00 34 1014.0
20260902164404 101 206 0.0 5.0 0.00 0.00 0.00 33 1014.0
20260902163905 100 206 1.0 6.0 0.00 0.00 0.00 33 1014.1
20260902163405 100 228 2.0 8.0 0.00 0.00 0.00 32 1014.1
20260902161405 101 207 5.0 9.0 0.00 0.00 0.00 31 1014.1
20260902160906 101 226 3.0 9.0 0.00 0.00 0.00 31 1014.1
20260902160405 101 191 2.0 10.0 0.00 0.00 0.00 31 1014.2
20260902154905 101 238 1.0 6.0 0.00 0.00 0.00 30 1014.1
20260902154405 101 157 3.0 6.0 0.00 0.00 0.00 31 1014.1
20260902153905 101 240 1.0 7.0 0.00 0.00 0.00 31 1014.0
20260902153405 102 209 0.0 3.0 0.00 0.00 0.00 31 1014.1
20260902150904 101 225 0.0 3.0 0.00 0.00 0.00 33 1014.3
20260902150405 100 135 0.0 3.0 0.00 0.00 0.00 34 1014.4
20260902144405 101 28 0.0 0.0 0.00 0.00 0.00 33 1014.4
20260902143904 100 229 0.0 0.0 0.00 0.00 0.00 34 1014.5
20260902141405 98 150 0.0 3.0 0.00 0.00 0.00 36 1014.7
20260902140905 98 85 0.0 0.0 0.00 0.00 0.00 37 1014.7
20260902140405 98 163 0.0 0.0 0.00 0.00 0.00 37 1014.8
20260902134905 97 46 0.0 0.0 0.00 0.00 0.00 39 1015.1
20260902134405 98 54 0.0 0.0 0.00 0.00 0.00 38 1015.2
20260902133905 98 124 0.0 0.0 0.00 0.00 0.00 39 1015.2
20260902131905 96 244 0.0 2.0 0.00 0.00 0.00 41 1015.3
20260902131405 96 257 0.0 0.0 0.00 0.00 0.00 42 1015.4